Weather observations for the past three days for
Chatham, Chatham Municipal Airport
Metric (Imperial)
Date Time (edt) Wind (kph) Vis. (km) Weather Sky Cond. Temperature (ºC) Relative Humidity Wind Chill (°C) Heat Index (°C) Pressure Precipitation (cm)
Air Dwpt 6 hour altimeter (cm) sea level (mb) 1 hr 3 hr 6 hr
Max. Min.
07 21:52 W 6 16.09 Fair CLR 8.3 6.1 86% 75.57 1007.5
07 20:52 SW 6 16.09 Fair CLR 10 7.2 83% 75.51 1007.0
07 19:52 Calm 16.09 Fair CLR 11.7 6.7 15.6 11.7 72% 75.49 1006.4
07 18:52 SW 7 16.09 Fair CLR 12.8 6.1 64% 75.46 1006.1
07 17:52 SW 13 G 26 16.09 Fair CLR 13.3 8.3 72% 75.46 1006.1
07 16:52 SW 15 G 26 16.09 Fair CLR 12.8 8.9 77% 75.46 1006.0
07 15:52 Vrbl 11 G 31 16.09 Fair CLR 13.9 9.4 74% 75.44 1005.9
07 14:52 SW 11 G 30 16.09 Fair CLR 13.9 8.3 69% 75.51 1006.7
07 13:52 Vrbl 11 16.09 Fair CLR 15 5.6 15 8.3 54% 75.54 1007.2 0.05
07 12:52 Vrbl 11 16.09 Fair CLR 13.9 6.7 62% 75.57 1007.5
07 11:52 NW 13 16.09 A Few Clouds FEW100 12.2 7.2 72% 75.59 1007.9
07 10:52 Vrbl 9 16.09 Overcast BKN090 OVC100 10.6 7.8 83% 75.62 1008.1 0.03 0.05
07 09:52 Vrbl 6 16.09 Overcast FEW012 OVC070 8.9 7.2 89% 75.59 1008.0
07 08:52 Vrbl 7 16.09 Light Rain OVC060 8.3 7.2 93% 7 75.62 1008.1 0.03
07 07:52 Vrbl 7 9.66 Rain Fog/Mist FEW027 BKN048 OVC070 8.9 7.8 12.2 8.9 93% 8 75.64 1008.4 0.1 0.53
07 06:52 Vrbl 7 16.09 Overcast BKN020 OVC043 9.4 8.9 97% 9 75.54 1007.2 0.3
07 05:52 Calm 4.83 Rain Fog/Mist BKN006 BKN011 OVC039 11.1 10.6 97% 75.51 1006.7 0.13
07 04:52 Vrbl 11 1.21 Fog/Mist VV002 11.1 11.1 100% 75.49 1006.4
07 03:52 Vrbl 7 9.66 Fog/Mist OVC003 11.7 11.7 100% 75.44 1005.9
07 02:52 SW 13 2.01 Fog/Mist OVC002 12.2 12.2 100% 75.49 1006.4
07 01:52 SW 17 G 35 1.61 Fog/Mist VV002 12.2 12.2 13.9 12.2 100% 75.51 1006.9 0.33
07 00:52 SW 13 G 37 1.61 Fog/Mist VV002 12.2 12.2 100% 75.57 1007.6
06 23:52 SW 22 G 44 4.02 Fog/Mist OVC003 12.8 12.2 96% 75.59 1007.9
06 22:52 SW 20 G 41 9.66 Fog/Mist OVC004 12.8 12.8 100% 75.62 1008.0 0.33
06 21:52 SW 28 G 48 11.27 Overcast OVC006 13.3 12.8 97% 75.67 1008.8 0.03
06 20:52 SW 22 G 48 2.82 Heavy Rain Fog/Mist OVC004 13.3 12.8 97% 75.67 1008.9 0.3
06 19:52 S 20 G 50 6.44 Light Rain Fog/Mist BKN007 OVC013 13.3 12.8 17.2 13.3 97% 75.72 1009.4 0.25 0.25
06 18:52 S 20 G 44 16.09 Overcast BKN032 BKN042 OVC050 14.4 11.7 84% 75.72 1009.7
06 17:52 S 20 G 56 16.09 Overcast SCT036 SCT043 OVC110 14.4 11.7 84% 75.74 1009.9
06 16:52 S 20 G 50 16.09 A Few Clouds FEW030 15 11.7 81% 75.79 1010.4
06 15:52 S 24 G 54 16.09 Fair CLR 15 11.7 81% 75.82 1010.8
06 14:52 SW 22 G 56 16.09 Fair CLR 15.6 11.7 78% 75.87 1011.5
06 13:52 SW 22 G 50 16.09 Fair CLR 16.7 12.2 17.2 13.9 75% 75.92 1012.4
06 12:52 S 26 G 52 16.09 Fair CLR 16.1 12.2 78% 76 1013.2
06 11:52 SW 19 G 48 16.09 Fair CLR 17.2 12.2 73% 76.07 1014.1
06 10:52 S 24 G 52 16.09 Fair CLR 16.1 12.2 78% 76.02 1013.5
06 09:52 SW 20 G 46 16.09 Fair CLR 16.1 11.7 75% 76.05 1014.0
06 08:52 SW 20 G 43 16.09 A Few Clouds FEW021 15 11.7 81% 76.05 1013.9
06 07:52 SW 13 G 30 16.09 Overcast OVC014 14.4 11.7 14.4 12.8 84% 76.1 1014.6
06 06:52 SW 13 16.09 Overcast OVC015 13.3 11.7 90% 76.1 1014.5
06 05:52 SW 15 G 30 14.48 Overcast OVC017 12.8 11.1 90% 76.1 1014.6
06 04:52 SW 13 G 28 16.09 Overcast OVC015 12.8 11.1 90% 76.1 1014.6
06 03:52 SW 15 G 33 16.09 Overcast FEW012 OVC017 12.8 11.1 90% 76.07 1014.4
06 02:52 SW 19 G 31 16.09 Overcast BKN011 OVC026 12.8 11.1 90% 76.07 1014.4
06 01:52 SW 17 G 31 14.48 Overcast BKN011 OVC023 12.8 11.7 13.3 12.8 93% 76.1 1014.6
06 00:52 SW 20 G 41 16.09 Overcast SCT007 OVC020 12.8 11.7 93% 76.12 1014.8
05 23:52 SW 22 G 37 16.09 Mostly Cloudy FEW009 BKN020 12.8 11.1 90% 76.1 1014.6
05 22:52 SW 20 G 44 16.09 Fair CLR 12.8 11.1 90% 76.1 1014.5
05 21:52 SW 15 16.09 Fair CLR 12.8 10.6 87% 76.1 1014.7
05 20:52 SW 22 G 43 16.09 Fair CLR 12.8 10.6 87% 76 1013.4
05 19:52 SW 17 G 44 16.09 Fair CLR 12.8 9.4 15 12.8 80% 75.97 1012.8
05 18:52 SW 22 G 39 16.09 Fair CLR 13.3 10 81% 75.95 1012.5
05 17:52 SW 20 G 46 16.09 Fair CLR 13.9 10.6 81% 75.92 1012.1
05 16:52 SW 22 G 48 16.09 Fair CLR 14.4 10.6 78% 75.9 1012.0
05 15:52 SW 26 G 46 16.09 Fair CLR 15 10.6 75% 75.92 1012.3
05 14:52 SW 22 G 44 16.09 Fair CLR 15 10.6 75% 75.95 1012.6
05 13:52 SW 24 G 44 16.09 Fair CLR 15 10.6 15 12.2 75% 76 1013.2
05 12:52 SW 19 G 43 16.09 Fair CLR 14.4 10.6 78% 76.02 1013.5
05 11:52 SW 20 G 41 16.09 Fair CLR 15 10.6 75% 76.05 1013.9
05 10:52 SW 19 G 44 16.09 Fair CLR 13.9 10.6 81% 76.02 1013.6
05 09:52 SW 22 G 46 16.09 Fair CLR 13.9 10 78% 76 1013.3
05 08:52 SW 15 G 35 16.09 Fair CLR 13.3 10 81% 76.02 1013.5
05 07:52 S 19 G 28 16.09 Fair CLR 12.2 9.4 12.2 10.6 83% 76.02 1013.5
05 06:52 S 15 G 28 16.09 Fair CLR 11.1 8.9 86% 76 1013.3
05 05:52 S 15 16.09 Fair CLR 10.6 8.9 89% 75.97 1013.0
05 04:52 SW 11 16.09 Fair CLR 10.6 8.9 89% 75.97 1012.8
05 03:52 SW 11 16.09 Fair CLR 10.6 8.9 89% 75.97 1013.0
05 02:52 SW 13 16.09 Fair CLR 11.1 8.9 86% 75.97 1012.9
05 01:52 SW 15 G 35 16.09 Fair CLR 11.1 8.9 11.1 10.6 86% 75.97 1013.0
05 00:52 SW 17 G 31 16.09 Fair CLR 11.1 8.9 86% 75.97 1013.0
04 23:52 SW 15 G 33 16.09 Fair CLR 11.1 8.3 83% 76.02 1013.5
04 22:52 SW 17 G 37 16.09 Fair CLR 11.1 7.8 80% 76.02 1013.6
Date Time (edt) Wind (kph) Vis. (km) Weather Sky Cond. Air Dwpt Max. Min. Relative Humidity Wind Chill (°C) Heat Index (°C) altimeter (cm) sea level (mb) 1 hr 3 hr 6 hr
6 hour
Temperature (ºC) Pressure Precipitation (cm)